When you browse on this site, cookies collect data to enhance your experience and personalize the content and advertising you see.
Visit our Privacy Policy to learn more. By continuing to use the site, you agree to this use of cookies and data.
  • In Portugal
  • List of Countries
  • For 7 days
  • Water Temperature
  • Weather Map
  • Weather Widgets
  • user-avatar
    Login

    Hourly Weather Barisal

    Today, 12 December, Thursday

    Time Temperature Precipitation Wind Pressure Humidity
    00:00 +21°C° 0 mm 1 mps 759 mmHg 72%
    01:00 +20°C° 0 mm 1 mps 759 mmHg 74%
    02:00 +20°C° 0 mm 1 mps 759 mmHg 75%
    03:00 +20°C° 0 mm 1 mps 759 mmHg 76%
    04:00 +20°C° 0 mm 1 mps 759 mmHg 77%
    05:00 +19°C° 0 mm 2 mps 759 mmHg 78%
    06:00 +19°C° 0 mm 1 mps 760 mmHg 87%
    07:00 +21°C° 0 mm 1 mps 761 mmHg 81%
    08:00 +22°C° 0 mm 1 mps 761 mmHg 74%
    09:00 +24°C° 0 mm 2 mps 762 mmHg 68%
    10:00 +25°C° 0 mm 2 mps 762 mmHg 61%
    11:00 +26°C° 0 mm 2 mps 761 mmHg 54%
    12:00 +28°C° 0 mm 2 mps 761 mmHg 46%
    13:00 +28°C° 0 mm 2 mps 760 mmHg 44%
    14:00 +28°C° 0 mm 2 mps 760 mmHg 43%
    15:00 +28°C° 0 mm 2 mps 759 mmHg 41%
    16:00 +27°C° 0 mm 2 mps 759 mmHg 45%
    17:00 +25°C° 0 mm 2 mps 759 mmHg 50%
    18:00 +24°C° 0 mm 1 mps 759 mmHg 54%
    19:00 +23°C° 0 mm 1 mps 760 mmHg 56%
    20:00 +23°C° 0 mm 1 mps 760 mmHg 57%
    21:00 +22°C° 0 mm 1 mps 760 mmHg 59%
    22:00 +22°C° 0 mm 1 mps 760 mmHg 61%
    23:00 +21°C° 0 mm 1 mps 760 mmHg 63%

    Tomorrow, 13 December, Friday

    Time Temperature Precipitation Wind Pressure Humidity
    00:00 +20°C° 0 mm 2 mps 760 mmHg 65%
    01:00 +19°C° 0 mm 2 mps 760 mmHg 66%
    02:00 +19°C° 0 mm 2 mps 760 mmHg 68%
    03:00 +19°C° 0 mm 2 mps 760 mmHg 69%
    04:00 +19°C° 0 mm 2 mps 760 mmHg 70%
    05:00 +18°C° 0 mm 2 mps 760 mmHg 72%
    06:00 +19°C° 0 mm 1 mps 760 mmHg 73%
    07:00 +21°C° 0 mm 1 mps 761 mmHg 68%
    08:00 +22°C° 0 mm 1 mps 762 mmHg 64%
    09:00 +24°C° 0 mm 1 mps 762 mmHg 59%
    10:00 +25°C° 0 mm 1 mps 762 mmHg 53%
    11:00 +27°C° 0 mm 1 mps 762 mmHg 47%
    12:00 +29°C° 0 mm 1 mps 761 mmHg 42%
    13:00 +29°C° 0 mm 1 mps 761 mmHg 40%
    14:00 +29°C° 0 mm 1 mps 760 mmHg 38%
    15:00 +29°C° 0 mm 1 mps 759 mmHg 36%
    16:00 +27°C° 0 mm 1 mps 759 mmHg 44%
    17:00 +25°C° 0 mm 1 mps 760 mmHg 52%
    18:00 +23°C° 0 mm 2 mps 760 mmHg 59%
    19:00 +23°C° 0 mm 1 mps 761 mmHg 63%
    20:00 +22°C° 0 mm 1 mps 761 mmHg 67%
    21:00 +22°C° 0 mm 1 mps 762 mmHg 70%
    22:00 +21°C° 0 mm 1 mps 762 mmHg 71%
    23:00 +21°C° 0 mm 1 mps 762 mmHg 72%

    Day after tomorrow, 14 December, Saturday

    Time Temperature Precipitation Wind Pressure Humidity
    00:00 +21°C° 0 mm 1 mps 761 mmHg 72%
    01:00 +20°C° 0 mm 1 mps 761 mmHg 73%
    02:00 +20°C° 0 mm 1 mps 761 mmHg 75%
    03:00 +20°C° 0 mm 1 mps 761 mmHg 76%
    04:00 +20°C° 0 mm 1 mps 761 mmHg 76%
    05:00 +19°C° 0 mm 1 mps 761 mmHg 77%
    06:00 +17°C° 0 mm 0 mps 761 mmHg 77%
    07:00 +21°C° 0 mm 1 mps 762 mmHg 70%
    08:00 +23°C° 0 mm 1 mps 762 mmHg 64%
    09:00 +24°C° 0 mm 1 mps 763 mmHg 57%
    10:00 +26°C° 0 mm 1 mps 762 mmHg 51%
    11:00 +27°C° 0 mm 1 mps 762 mmHg 46%
    12:00 +29°C° 0 mm 1 mps 761 mmHg 40%
    13:00 +29°C° 0 mm 1 mps 761 mmHg 39%
    14:00 +29°C° 0 mm 1 mps 760 mmHg 38%
    15:00 +29°C° 0 mm 1 mps 760 mmHg 36%
    16:00 +28°C° 0 mm 1 mps 760 mmHg 42%
    17:00 +26°C° 0 mm 1 mps 760 mmHg 47%
    18:00 +24°C° 0 mm 1 mps 760 mmHg 53%
    19:00 +24°C° 0 mm 1 mps 760 mmHg 55%
    20:00 +23°C° 0 mm 1 mps 761 mmHg 57%
    21:00 +21°C° 0 mm 0 mps 761 mmHg 59%
    22:00 +20°C° 0 mm 0 mps 761 mmHg 60%
    23:00 +20°C° 0 mm 0 mps 761 mmHg 61%

    15 December, Sunday

    Time Temperature Precipitation Wind Pressure Humidity
    00:00 +20°C° 0 mm 0 mps 760 mmHg 61%
    01:00 +21°C° 0 mm 1 mps 760 mmHg 62%
    02:00 +21°C° 0 mm 1 mps 760 mmHg 63%
    03:00 +21°C° 0 mm 1 mps 760 mmHg 64%
    04:00 +21°C° 0 mm 1 mps 760 mmHg 65%
    05:00 +20°C° 0 mm 2 mps 760 mmHg 67%
    06:00 +19°C° 0 mm 2 mps 760 mmHg 69%
    07:00 +21°C° 0 mm 2 mps 761 mmHg 64%
    08:00 +23°C° 0 mm 2 mps 761 mmHg 60%
    09:00 +25°C° 0 mm 2 mps 762 mmHg 55%
    10:00 +26°C° 0 mm 2 mps 761 mmHg 50%
    11:00 +28°C° 0 mm 2 mps 761 mmHg 46%
    12:00 +29°C° 0 mm 3 mps 760 mmHg 41%
    13:00 +30°C° 0 mm 3 mps 760 mmHg 40%
    14:00 +30°C° 0 mm 3 mps 759 mmHg 38%
    15:00 +30°C° 0 mm 3 mps 759 mmHg 37%
    16:00 +29°C° 0 mm 3 mps 759 mmHg 42%
    17:00 +27°C° 0 mm 2 mps 759 mmHg 46%
    18:00 +25°C° 0 mm 2 mps 759 mmHg 51%
    19:00 +24°C° 0 mm 2 mps 759 mmHg 53%
    20:00 +24°C° 0 mm 3 mps 760 mmHg 56%
    21:00 +22°C° 0 mm 3 mps 760 mmHg 58%
    22:00 +22°C° 0 mm 3 mps 760 mmHg 58%
    23:00 +21°C° 0 mm 3 mps 760 mmHg 58%

    16 December, Monday

    Time Temperature Precipitation Wind Pressure Humidity
    00:00 +21°C° 0 mm 2 mps 760 mmHg 57%
    01:00 +21°C° 0 mm 2 mps 759 mmHg 59%
    02:00 +20°C° 0 mm 2 mps 759 mmHg 60%
    03:00 +20°C° 0 mm 2 mps 759 mmHg 62%
    04:00 +19°C° 0 mm 2 mps 759 mmHg 61%
    05:00 +19°C° 0 mm 2 mps 759 mmHg 61%
    06:00 +19°C° 0 mm 2 mps 759 mmHg 61%
    07:00 +20°C° 0 mm 2 mps 760 mmHg 56%
    08:00 +23°C° 0 mm 2 mps 761 mmHg 51%
    09:00 +25°C° 0 mm 2 mps 761 mmHg 47%
    10:00 +26°C° 0 mm 3 mps 761 mmHg 42%
    11:00 +28°C° 0 mm 3 mps 761 mmHg 38%
    12:00 +29°C° 0 mm 3 mps 760 mmHg 34%
    13:00 +30°C° 0 mm 3 mps 760 mmHg 34%
    14:00 +30°C° 0 mm 3 mps 759 mmHg 34%
    15:00 +30°C° 0 mm 4 mps 759 mmHg 35%
    16:00 +28°C° 0 mm 4 mps 759 mmHg 41%
    17:00 +27°C° 0 mm 3 mps 759 mmHg 46%
    18:00 +25°C° 0 mm 3 mps 759 mmHg 52%
    19:00 +24°C° 0 mm 3 mps 759 mmHg 54%
    20:00 +22°C° 0 mm 3 mps 760 mmHg 56%
    21:00 +22°C° 0 mm 3 mps 760 mmHg 58%
    22:00 +21°C° 0 mm 3 mps 760 mmHg 58%
    23:00 +21°C° 0 mm 3 mps 760 mmHg 58%

    17 December, Tuesday

    Time Temperature Precipitation Wind Pressure Humidity
    00:00 +20°C° 0 mm 2 mps 760 mmHg 59%
    01:00 +20°C° 0 mm 2 mps 759 mmHg 60%
    02:00 +20°C° 0 mm 2 mps 759 mmHg 61%
    03:00 +20°C° 0 mm 2 mps 759 mmHg 63%
    04:00 +19°C° 0 mm 2 mps 759 mmHg 63%
    05:00 +19°C° 0 mm 2 mps 760 mmHg 63%
    06:00 +19°C° 0 mm 2 mps 760 mmHg 63%
    07:00 +21°C° 0 mm 2 mps 760 mmHg 59%
    08:00 +22°C° 0 mm 3 mps 761 mmHg 55%
    09:00 +25°C° 0 mm 3 mps 761 mmHg 51%
    10:00 +26°C° 0 mm 3 mps 761 mmHg 47%
    11:00 +28°C° 0 mm 4 mps 761 mmHg 43%
    12:00 +29°C° 0 mm 4 mps 760 mmHg 40%
    13:00 +30°C° 0 mm 4 mps 760 mmHg 39%
    14:00 +30°C° 0 mm 4 mps 759 mmHg 39%
    15:00 +30°C° 0 mm 3 mps 758 mmHg 39%
    16:00 +28°C° 0 mm 3 mps 759 mmHg 43%
    17:00 +27°C° 0 mm 3 mps 759 mmHg 47%
    18:00 +25°C° 0 mm 3 mps 759 mmHg 52%
    19:00 +25°C° 0 mm 3 mps 759 mmHg 52%
    20:00 +24°C° 0 mm 3 mps 759 mmHg 53%
    21:00 +22°C° 0 mm 3 mps 760 mmHg 53%
    22:00 +22°C° 0 mm 3 mps 760 mmHg 53%
    23:00 +23°C° 0 mm 2 mps 760 mmHg 53%
    Show more